Glens Falls, NY

1:44 PM EST on November 23, 2017 (GMT -0500)
Bennett Memorial

Weather History for KGFL - February, 2013

Change the Weather History Date:

Thursday, February 21, 2013

  Actual Average Record
Temperature  
Mean Temperature 20 °F 23 °F  
Max Temperature 27 °F 34 °F 65 °F (1981)
Min Temperature 13 °F 11 °F -17 °F (2015)
Degree Days  
Heating Degree Days 45 42  
Month to date heating degree days 926 937  
Since 1 July heating degree days 4871 5333  
Cooling Degree Days 0 0  
Month to date cooling degree days 0 0  
Year to date cooling degree days 0 0  
Moisture  
Dew Point 7 °F    
Average Humidity 59    
Maximum Humidity 71    
Minimum Humidity 46    
Precipitation  
Precipitation 0.00 in 0.07 in 1.22 in (1989)
Month to date precipitation 0.42 1.53  
Year to date precipitation 1.70 4.39  
Sea Level Pressure  
Sea Level Pressure 30.08 in    
Wind  
Wind Speed 9 mph (NNW)    
Max Wind Speed 17 mph    
Max Gust Speed 24 mph    
Visibility 10 miles    
Events      
T = Trace of Precipitation, MM = Missing Value Source: NWS Daily Summary

Daily Weather History Graph

Daily Weather History Graph

Search for Another Location

Airport or City:

Trip Planner

Search our weather history database for the weather conditions in past years. The results will help you decide how hot, cold, wet, or windy it might be!

Date:

Astronomy

Feb. 21, 2013 Rise Set
Actual Time 6:43 AM EST 5:33 PM EST
Civil Twilight 6:14 AM EST 6:02 PM EST
Nautical Twilight 5:41 AM EST 6:35 PM EST
Astronomical Twilight 5:08 AM EST 7:08 PM EST
Moon 1:41 PM EST (2/21) 3:50 AM EST (2/21)
Length of Visible Light 11h 48m
Length of Day
10h 50m
Waxing Gibbous, 83% of the Moon is Illuminated
Feb 21
Waxing Gibbous
Feb 25
Full
Mar 4
Last Quarter
Mar 11
New
Mar 19
First Quarter

Hourly Weather History & Observations

Time (EST) Temp. Windchill Dew Point Humidity Pressure Visibility Wind Dir Wind Speed Gust Speed Precip Events Conditions
12:53 AM 23.0 °F 11.1 °F 10.0 °F 58% 29.88 in 10.0 mi WNW 12.7 mph - N/A   Overcast
1:53 AM 21.0 °F 10.6 °F 7.0 °F 55% 29.89 in 10.0 mi West 9.2 mph 18.4 mph N/A   Overcast
2:53 AM 19.9 °F 7.9 °F 5.0 °F 52% 29.87 in 10.0 mi West 11.5 mph 18.4 mph N/A   Scattered Clouds
3:53 AM 19.0 °F 8.2 °F 5.0 °F 54% 29.88 in 10.0 mi West 9.2 mph - N/A   Partly Cloudy
4:53 AM 18.0 °F 7.7 °F 5.0 °F 57% 29.89 in 10.0 mi WNW 8.1 mph - N/A   Mostly Cloudy
5:53 AM 17.1 °F 3.0 °F 3.0 °F 54% 29.92 in 10.0 mi WNW 13.8 mph - N/A   Partly Cloudy
6:53 AM 14.0 °F 2.9 °F 3.0 °F 62% 29.95 in 10.0 mi NNW 8.1 mph 16.1 mph N/A   Clear
7:53 AM 14.0 °F 0.5 °F 1.0 °F 56% 29.99 in 10.0 mi North 11.5 mph - N/A   Overcast
8:53 AM 14.0 °F 1.2 °F 1.0 °F 56% 30.00 in 10.0 mi North 10.4 mph - N/A   Mostly Cloudy
9:53 AM 16.0 °F 2.3 °F 1.9 °F 54% 30.02 in 10.0 mi North 12.7 mph - N/A   Overcast
10:53 AM 17.1 °F 7.6 °F 3.0 °F 54% 30.04 in 10.0 mi North 6.9 mph - N/A   Clear
11:53 AM 19.9 °F 14.9 °F 3.9 °F 50% 30.04 in 10.0 mi South 3.5 mph - N/A   Mostly Cloudy
12:53 PM 24.1 °F 13.1 °F 7.0 °F 48% 30.03 in 10.0 mi North 11.5 mph - N/A   Mostly Cloudy
1:53 PM 23.0 °F 10.6 °F 8.1 °F 53% 30.04 in 10.0 mi North 13.8 mph - N/A   Overcast
2:53 PM 25.0 °F 12.6 °F 8.1 °F 49% 30.07 in 10.0 mi North 15.0 mph - N/A   Mostly Cloudy
3:53 PM 24.1 °F 11.5 °F 8.1 °F 51% 30.12 in 10.0 mi NNW 15.0 mph 19.6 mph N/A   Mostly Cloudy
4:53 PM 21.9 °F 11.7 °F 8.1 °F 55% 30.17 in 10.0 mi North 9.2 mph 18.4 mph N/A   Scattered Clouds
5:53 PM 21.0 °F 10.6 °F 8.1 °F 57% 30.22 in 10.0 mi NNW 9.2 mph - N/A   Overcast
6:53 PM 19.9 °F 10.1 °F 9.0 °F 62% 30.26 in 10.0 mi North 8.1 mph - N/A   Overcast
7:53 PM 21.0 °F 13.4 °F 9.0 °F 60% 30.27 in 10.0 mi NNE 5.8 mph - N/A   Overcast
8:53 PM 21.0 °F - 12.9 °F 71% 30.32 in 10.0 mi Calm Calm - N/A   Overcast
9:53 PM 21.0 °F - 14.0 °F 74% 30.35 in 10.0 mi Calm Calm - N/A   Overcast
10:53 PM 21.9 °F - 12.0 °F 66% 30.38 in 10.0 mi Calm Calm - N/A   Overcast
11:53 PM 21.9 °F 14.5 °F 15.1 °F 75% 30.41 in 10.0 mi North 5.8 mph - N/A   Overcast